TimeCDT,TemperatureF,Dew PointF,Humidity,Sea Level PressureIn,VisibilityMPH,Wind Direction,Wind SpeedMPH,Gust SpeedMPH,PrecipitationIn,Events,Conditions,WindDirDegrees,DateUTC
12:15 AM,76.5,69.6,79,30.05,10.0,ESE,6.9,-,N/A,,Mostly Cloudy,110,2013-05-24 05:15:00
12:35 AM,76.5,70.0,80,30.05,10.0,ESE,8.1,-,N/A,,Mostly Cloudy,110,2013-05-24 05:35:00
12:55 AM,76.5,70.3,81,30.04,10.0,East,8.1,-,N/A,,Overcast,100,2013-05-24 05:55:00
1:15 AM,76.5,71.1,83,30.04,10.0,ESE,8.1,-,N/A,,Mostly Cloudy,110,2013-05-24 06:15:00
1:35 AM,76.5,71.2,84,30.07,10.0,ESE,5.8,-,N/A,,Overcast,110,2013-05-24 06:35:00
1:55 AM,76.5,71.2,84,30.06,10.0,East,5.8,-,N/A,,Overcast,100,2013-05-24 06:55:00
2:15 AM,76.5,71.6,85,30.05,7.0,ESE,8.1,-,N/A,,Overcast,110,2013-05-24 07:15:00
2:35 AM,76.5,71.6,85,30.07,7.0,SSE,4.6,-,N/A,,Overcast,150,2013-05-24 07:35:00
2:55 AM,73.9,69.3,85,30.06,7.0,SE,8.1,-,N/A,,Mostly Cloudy,130,2013-05-24 07:55:00
3:15 AM,73.9,69.3,85,30.05,7.0,ESE,6.9,-,N/A,,Scattered Clouds,120,2013-05-24 08:15:00
3:35 AM,73.9,69.8,87,30.05,7.0,SE,8.1,-,N/A,,Mostly Cloudy,130,2013-05-24 08:35:00
3:55 AM,73.9,69.8,87,30.05,7.0,ESE,4.6,-,N/A,,Mostly Cloudy,110,2013-05-24 08:55:00
4:15 AM,73.9,69.8,87,30.06,7.0,ESE,3.5,-,N/A,,Scattered Clouds,110,2013-05-24 09:15:00
4:35 AM,73.4,68.9,86,30.05,7.0,East,4.6,-,N/A,Thunderstorm,Mostly Cloudy,100,2013-05-24 09:35:00
4:55 AM,72.7,68.7,87,30.05,7.0,East,4.6,-,N/A,,Mostly Cloudy,80,2013-05-24 09:55:00
5:15 AM,72.7,68.9,88,30.07,7.0,East,4.6,-,N/A,Thunderstorm,Overcast,100,2013-05-24 10:15:00
5:35 AM,72.7,68.9,88,30.08,7.0,East,5.8,-,N/A,,Overcast,100,2013-05-24 10:35:00
5:55 AM,72.5,68.9,88,30.08,7.0,SE,3.5,-,N/A,Thunderstorm,Thunderstorm,140,2013-05-24 10:55:00
6:15 AM,72.3,68.7,88,30.08,7.0,SSE,3.5,-,N/A,,Overcast,150,2013-05-24 11:15:00
6:35 AM,71.8,67.5,86,30.08,10.0,Calm,Calm,-,N/A,Rain-Thunderstorm,Light Thunderstorms and Rain,0,2013-05-24 11:35:00
6:55 AM,68.7,64.2,86,30.10,10.0,NW,9.2,-,N/A,Rain-Thunderstorm,Light Thunderstorms and Rain,320,2013-05-24 11:55:00
7:15 AM,66.2,62.6,88,30.12,10.0,WNW,6.9,-,N/A,Rain-Thunderstorm,Light Thunderstorms and Rain,300,2013-05-24 12:15:00
7:35 AM,64.9,62.2,91,30.11,5.0,NNW,8.1,-,0.02,Rain-Thunderstorm,Light Thunderstorms and Rain,340,2013-05-24 12:35:00
7:55 AM,64.8,62.4,92,30.12,10.0,North,3.5,-,0.04,Rain-Thunderstorm,Light Thunderstorms and Rain,10,2013-05-24 12:55:00
8:15 AM,64.9,62.6,92,30.12,5.0,Calm,Calm,-,0.01,Rain-Thunderstorm,Thunderstorms and Rain,0,2013-05-24 13:15:00
8:35 AM,65.1,62.6,92,30.12,7.0,Calm,Calm,-,0.01,Rain,Light Rain,0,2013-05-24 13:35:00
8:55 AM,65.5,63.1,92,30.12,7.0,Calm,Calm,-,0.02,Rain,Light Rain,0,2013-05-24 13:55:00
9:15 AM,65.1,62.8,92,30.13,7.0,Calm,Calm,-,N/A,,Mostly Cloudy,0,2013-05-24 14:15:00
9:35 AM,65.3,62.8,92,30.14,10.0,Calm,Calm,-,N/A,Thunderstorm,Mostly Cloudy,0,2013-05-24 14:35:00
9:55 AM,66.2,63.7,92,30.14,10.0,SE,4.6,-,N/A,Thunderstorm,Unknown,140,2013-05-24 14:55:00
10:15 AM,66.2,63.9,92,30.15,7.0,South,3.5,-,N/A,Rain,Light Rain,170,2013-05-24 15:15:00
10:35 AM,66.2,64.0,93,30.15,4.0,Calm,Calm,-,0.02,Rain-Thunderstorm,Light Thunderstorms and Rain,0,2013-05-24 15:35:00
10:55 AM,66.2,64.0,93,30.14,5.0,Calm,Calm,-,0.03,Rain-Thunderstorm,Light Thunderstorms and Rain,0,2013-05-24 15:55:00
11:15 AM,66.2,64.2,93,30.15,5.0,SW,5.8,-,0.01,Rain-Thunderstorm,Thunderstorms and Rain,230,2013-05-24 16:15:00
11:35 AM,65.1,62.8,92,30.18,5.0,SW,6.9,-,0.05,Rain-Thunderstorm,Rain,230,2013-05-24 16:35:00
11:55 AM,64.6,61.9,91,30.17,10.0,South,3.5,-,0.08,Rain-Thunderstorm,Light Thunderstorms and Rain,170,2013-05-24 16:55:00
12:15 PM,64.4,61.9,92,30.16,5.0,Calm,Calm,-,0.02,Rain-Thunderstorm,Rain,0,2013-05-24 17:15:00
12:35 PM,64.6,61.9,91,30.14,7.0,Calm,Calm,-,0.04,Rain,Light Rain,0,2013-05-24 17:35:00
12:55 PM,65.3,61.9,89,30.12,10.0,North,3.5,-,0.04,Rain-Thunderstorm,Light Thunderstorms and Rain,350,2013-05-24 17:55:00
1:15 PM,66.2,62.2,87,30.11,5.0,Calm,Calm,-,0.02,Rain,Rain,0,2013-05-24 18:15:00
1:35 PM,64.9,62.2,91,30.10,10.0,Calm,Calm,-,0.02,Rain,Light Rain,0,2013-05-24 18:35:00
1:55 PM,66.2,63.5,91,30.09,10.0,Calm,Calm,-,0.02,,Scattered Clouds,0,2013-05-24 18:55:00
2:15 PM,66.4,62.6,88,30.06,10.0,Calm,Calm,-,0.01,,Clear,0,2013-05-24 19:15:00
2:35 PM,68.9,65.3,88,30.06,10.0,SE,4.6,-,0.01,,Clear,130,2013-05-24 19:35:00
2:55 PM,71.6,67.1,86,30.06,10.0,ENE,3.5,-,0.01,,Clear,70,2013-05-24 19:55:00
3:15 PM,71.6,66.4,84,30.05,10.0,East,4.6,-,N/A,,Clear,100,2013-05-24 20:15:00
3:35 PM,72.7,65.8,79,30.06,10.0,East,10.4,-,N/A,,Clear,90,2013-05-24 20:35:00
3:55 PM,71.6,66.4,84,30.06,10.0,East,8.1,-,N/A,,Clear,100,2013-05-24 20:55:00
4:15 PM,71.6,67.1,86,30.06,10.0,East,9.2,-,N/A,,Mostly Cloudy,90,2013-05-24 21:15:00
4:35 PM,71.6,67.1,86,30.06,10.0,East,8.1,-,N/A,,Scattered Clouds,80,2013-05-24 21:35:00
4:55 PM,71.6,67.1,86,30.06,10.0,East,9.2,-,N/A,,Mostly Cloudy,90,2013-05-24 21:55:00
5:15 PM,71.6,67.1,86,30.05,10.0,East,10.4,-,N/A,,Mostly Cloudy,90,2013-05-24 22:15:00
5:35 PM,71.6,66.9,85,30.05,10.0,East,9.2,-,N/A,,Scattered Clouds,80,2013-05-24 22:35:00
5:55 PM,68.9,66.0,90,30.06,7.0,ESE,5.8,-,0.01,Rain,Light Rain,110,2013-05-24 22:55:00
6:15 PM,69.1,66.6,92,30.07,10.0,East,4.6,-,N/A,,Overcast,90,2013-05-24 23:15:00
6:35 PM,68.9,66.4,92,30.08,10.0,ESE,5.8,-,N/A,,Overcast,110,2013-05-24 23:35:00
6:55 PM,68.9,66.4,92,30.08,10.0,East,5.8,-,N/A,,Overcast,100,2013-05-24 23:55:00
7:15 PM,68.9,66.4,92,30.09,10.0,East,6.9,-,N/A,,Overcast,80,2013-05-25 00:15:00
7:35 PM,68.9,66.4,92,30.09,10.0,East,6.9,-,N/A,,Overcast,80,2013-05-25 00:35:00
7:55 PM,68.9,66.2,91,30.10,10.0,East,9.2,-,N/A,,Overcast,90,2013-05-25 00:55:00
8:15 PM,68.9,66.4,92,30.09,10.0,East,5.8,-,N/A,,Overcast,90,2013-05-25 01:15:00
8:35 PM,68.9,66.2,91,30.09,10.0,East,5.8,-,N/A,,Overcast,90,2013-05-25 01:35:00
8:55 PM,68.9,66.2,91,30.09,10.0,East,5.8,-,N/A,,Overcast,80,2013-05-25 01:55:00
9:15 PM,68.9,66.4,92,30.09,10.0,ESE,4.6,-,N/A,,Overcast,110,2013-05-25 02:15:00
9:35 PM,68.9,66.7,93,30.10,10.0,ESE,4.6,-,N/A,,Overcast,110,2013-05-25 02:35:00
9:55 PM,68.9,66.7,93,30.10,10.0,ESE,4.6,-,N/A,,Mostly Cloudy,110,2013-05-25 02:55:00
10:15 PM,68.2,66.2,93,30.11,10.0,ESE,4.6,-,N/A,,Mostly Cloudy,120,2013-05-25 03:15:00
10:35 PM,68.2,66.2,93,30.12,10.0,East,3.5,-,N/A,,Overcast,100,2013-05-25 03:35:00
10:55 PM,68.2,66.2,93,30.13,10.0,ESE,4.6,-,N/A,,Overcast,110,2013-05-25 03:55:00
11:15 PM,68.9,66.9,93,30.13,10.0,East,6.9,-,N/A,,Overcast,100,2013-05-25 04:15:00
11:35 PM,68.9,66.6,92,30.13,10.0,East,4.6,-,N/A,,Overcast,100,2013-05-25 04:35:00
11:55 PM,68.7,66.4,92,30.14,10.0,ESE,6.9,-,N/A,,Mostly Cloudy,110,2013-05-25 04:55:00